GW5240 Weather Reports


time (UTC)temp
C
wind
direction
speed
KPH
gust
KPH
rain 1hr
cm
rain 24hr
cm
rain mn
cm
humidity
%
barometer
mb
20260905184515 28 175 0.0 0.0 0.00 0.00 0.00 69 1017.4
20260905184014 27 96 3.2 4.8 0.00 0.00 0.00 69 1017.4
20260905183514 28 162 1.6 3.2 0.00 0.00 0.00 68 1017.4
20260905183009 28 183 1.6 3.2 0.00 0.00 0.00 68 1017.5
20260905182508 28 172 1.6 3.2 0.00 0.00 0.00 68 1017.5
20260905182003 27 94 4.8 8.0 0.00 0.00 0.00 69 1017.5
20260905181458 27 72 1.6 3.2 0.00 0.00 0.00 71 1017.4
20260905180957 27 117 3.2 4.8 0.00 0.00 0.00 71 1017.7
20260905180452 27 198 3.2 4.8 0.00 0.00 0.00 71 1017.6
20260905175947 26 143 0.0 0.0 0.00 0.00 0.00 73 1017.7
20260905175446 26 164 1.6 3.2 0.00 0.00 0.00 73 1017.8
20260905174942 26 130 3.2 4.8 0.00 0.00 0.00 74 1017.8
20260905174437 26 160 0.0 3.2 0.00 0.00 0.00 74 1018.0
20260905173933 26 170 0.0 0.0 0.00 0.00 0.00 74 1018.1
20260905173429 26 159 1.6 3.2 0.00 0.00 0.00 75 1018.2
20260905172925 26 177 1.6 3.2 0.00 0.00 0.00 77 1018.3
20260905172422 25 231 0.0 0.0 0.00 0.00 0.00 77 1018.2
20260905171918 25 140 1.6 3.2 0.00 0.00 0.00 78 1018.5
20260905171415 25 2 3.2 4.8 0.00 0.00 0.00 78 1018.3
20260905170911 25 194 1.6 3.2 0.00 0.00 0.00 79 1018.4
20260905170407 25 152 6.4 11.3 0.00 0.00 0.00 79 1018.4
20260905165901 24 171 1.6 3.2 0.00 0.00 0.00 81 1018.2
20260905165356 25 177 0.0 0.0 0.00 0.00 0.00 80 1018.4
20260905164856 25 152 0.0 0.0 0.00 0.00 0.00 80 1018.4
20260905164351 24 176 0.0 3.2 0.00 0.00 0.00 81 1018.4
20260905163846 24 72 3.2 3.2 0.00 0.00 0.00 82 1018.4
20260905163342 23 149 0.0 0.0 0.00 0.00 0.00 82 1018.6
20260905162838 23 154 3.2 4.8 0.00 0.00 0.00 82 1018.4
20260905162337 23 169 0.0 0.0 0.00 0.00 0.00 82 1018.6
20260905161832 23 154 0.0 0.0 0.00 0.00 0.00 83 1018.3
20260905161332 23 156 0.0 3.2 0.00 0.00 0.00 82 1018.5
20260905160830 23 212 1.6 3.2 0.00 0.00 0.00 83 1018.3
20260905160325 23 68 0.0 0.0 0.00 0.00 0.00 83 1018.3
20260905155820 23 85 1.6 3.2 0.00 0.00 0.00 83 1018.4
20260905155319 23 81 3.2 4.8 0.00 0.00 0.00 85 1018.2
20260905154819 23 207 3.2 4.8 0.00 0.00 0.00 86 1018.3
20260905154314 22 169 0.0 0.0 0.00 0.00 0.00 86 1018.5
20260905153809 22 138 0.0 3.2 0.00 0.00 0.00 86 1018.3
20260905153306 22 130 0.0 0.0 0.00 0.00 0.00 87 1018.3
20260905152800 22 167 0.0 0.0 0.00 0.00 0.00 88 1018.4
20260905152259 22 263 1.6 3.2 0.00 0.00 0.00 88 1018.2
20260905151754 22 223 3.2 3.2 0.00 0.00 0.00 88 1018.1
20260905151250 22 177 0.0 3.2 0.00 0.00 0.00 88 1017.9
20260905150749 22 147 0.0 3.2 0.00 0.00 0.00 89 1017.9
20260905150249 22 152 0.0 0.0 0.00 0.00 0.00 89 1017.5
20260905145747 21 157 0.0 0.0 0.00 0.00 0.00 89 1017.7
20260905145241 21 147 0.0 3.2 0.00 0.00 0.00 90 1017.7
20260905144740 21 145 0.0 0.0 0.00 0.00 0.00 91 1017.8
20260905144236 21 161 0.0 0.0 0.00 0.00 0.00 91 1017.9
20260905143735 21 129 3.2 4.8 0.00 0.00 0.00 91 1017.7
20260905143235 21 310 3.2 4.8 0.00 0.00 0.00 92 1017.9
20260905142733 21 124 1.6 3.2 0.00 0.00 0.00 93 1017.9
20260905142228 21 158 0.0 0.0 0.00 0.00 0.00 93 1017.8
20260905141724 21 103 3.2 3.2 0.00 0.00 0.00 94 1017.8
20260905141220 21 136 3.2 4.8 0.00 0.00 0.00 94 1017.8
20260905140715 21 130 3.2 3.2 0.00 0.00 0.00 95 1017.8
20260905140214 20 141 3.2 3.2 0.00 0.00 0.00 95 1017.9
20260905135704 20 144 1.6 3.2 0.00 0.00 0.00 95 1018.1
20260905135159 20 143 1.6 3.2 0.00 0.00 0.00 96 1018.0
20260905134653 20 157 0.0 0.0 0.00 0.00 0.00 96 1017.9
20260905134152 20 158 0.0 0.0 0.00 0.00 0.00 96 1018.0
20260905133647 20 158 0.0 0.0 0.00 0.00 0.00 96 1017.8
20260905133142 20 171 0.0 0.0 0.00 0.00 0.00 96 1017.8
20260905132641 20 171 0.0 0.0 0.00 0.00 0.00 96 1017.9
20260905132137 20 160 0.0 0.0 0.00 0.00 0.00 96 1017.5
20260905131632 20 160 0.0 0.0 0.00 0.00 0.00 96 1017.6
20260905131126 20 185 1.6 3.2 0.00 0.00 0.00 96 1017.6
20260905130621 20 174 0.0 0.0 0.00 0.00 0.00 96 1017.4
20260905130120 20 173 0.0 0.0 0.00 0.00 0.00 97 1017.1
20260905125614 20 167 0.0 0.0 0.00 0.00 0.00 97 1016.7
20260905125110 20 153 1.6 3.2 0.00 0.00 0.00 97 1016.3
20260905124607 20 351 3.2 8.0 0.00 0.00 0.00 96 1016.4
20260905124102 20 130 3.2 3.2 0.00 0.00 0.00 96 1016.2
20260905123557 20 154 0.0 0.0 0.00 0.00 0.00 96 1016.1
20260905123054 20 163 0.0 0.0 0.00 0.00 0.00 96 1015.9
20260905122548 20 160 0.0 3.2 0.00 0.00 0.00 96 1016.3
20260905122043 20 157 0.0 0.0 0.00 0.00 0.00 96 1016.3
20260905121538 20 153 0.0 3.2 0.00 0.00 0.00 96 1016.4
20260905121033 20 167 0.0 0.0 0.00 0.00 0.00 96 1016.3
20260905120532 20 72 3.2 3.2 0.00 0.00 0.00 96 1016.6
20260905120028 20 157 0.0 0.0 0.00 0.00 0.00 96 1016.6
20260905115526 20 172 0.0 0.0 0.00 0.00 0.00 96 1016.6
20260905115021 20 237 1.6 3.2 0.00 0.00 0.00 96 1016.6
20260905114520 20 154 0.0 0.0 0.00 0.00 0.00 96 1016.4
20260905114020 20 147 0.0 3.2 0.00 0.00 0.00 95 1016.2
20260905113515 20 155 0.0 3.2 0.00 0.00 0.00 95 1016.3
20260905113010 20 155 0.0 0.0 0.00 0.00 0.00 95 1016.2
20260905112505 20 152 0.0 0.0 0.00 0.00 0.00 95 1016.1
20260905112000 20 150 0.0 3.2 0.00 0.00 0.00 95 1015.9
20260905111455 20 157 0.0 3.2 0.00 0.00 0.00 95 1016.1
20260905110949 20 115 0.0 3.2 0.00 0.00 0.00 95 1016.1
20260905110448 20 147 0.0 0.0 0.00 0.00 0.00 95 1016.2
20260905105948 20 174 0.0 0.0 0.00 0.00 0.00 95 1016.2
20260905105443 20 173 0.0 0.0 0.00 0.00 0.00 95 1016.1
20260905104942 20 163 0.0 0.0 0.00 0.00 0.00 95 1016.1
20260905104438 20 155 0.0 0.0 0.00 0.00 0.00 95 1016.2
20260905103933 20 158 0.0 0.0 0.00 0.00 0.00 94 1016.0
20260905103429 20 170 3.2 4.8 0.00 0.00 0.00 94 1016.0
20260905102925 20 166 0.0 3.2 0.00 0.00 0.00 94 1015.9
20260905102421 20 164 0.0 0.0 0.00 0.00 0.00 94 1015.8
20260905101915 20 178 0.0 0.0 0.00 0.00 0.00 94 1015.9
20260905101408 20 150 0.0 3.2 0.00 0.00 0.00 94 1015.9
20260905100903 20 180 0.0 0.0 0.00 0.00 0.00 94 1016.2
20260905100359 20 151 0.0 0.0 0.00 0.00 0.00 94 1016.2
20260905095858 20 11 3.2 4.8 0.00 0.00 0.00 94 1015.5
20260905095352 20 168 0.0 0.0 0.00 0.00 0.00 94 1015.5
20260905094847 20 156 0.0 0.0 0.00 0.00 0.00 94 1015.5
20260905094343 20 166 3.2 3.2 0.00 0.00 0.00 94 1015.1
20260905093841 20 34 3.2 4.8 0.00 0.00 0.00 94 1015.3
20260905093337 20 209 3.2 4.8 0.00 0.00 0.00 94 1015.2
20260905092833 20 147 4.8 8.0 0.00 0.00 0.00 93 1015.1
20260905092332 20 153 0.0 0.0 0.00 0.00 0.00 93 1015.3
20260905091828 20 144 0.0 0.0 0.00 0.00 0.00 93 1015.3
20260905091327 20 138 1.6 3.2 0.00 0.00 0.00 93 1015.4
20260905090826 20 166 1.6 3.2 0.00 0.00 0.00 93 1015.4
20260905090322 20 119 3.2 4.8 0.00 0.00 0.00 92 1015.7
20260905085821 20 126 3.2 3.2 0.00 0.00 0.00 92 1015.7
20260905085316 20 176 3.2 3.2 0.00 0.00 0.00 92 1015.8
20260905084812 20 160 0.0 3.2 0.00 0.00 0.00 92 1015.7
20260905084311 20 110 4.8 4.8 0.00 0.00 0.00 92 1015.8
20260905083806 20 47 6.4 8.0 0.00 0.00 0.00 92 1015.7
20260905083302 20 161 1.6 3.2 0.00 0.00 0.00 92 1015.7
20260905082758 20 157 0.0 0.0 0.00 0.00 0.00 92 1015.9
20260905082254 20 159 0.0 0.0 0.00 0.00 0.00 92 1015.6
20260905081753 20 173 3.2 4.8 0.00 0.00 0.00 92 1015.6
20260905081249 20 136 3.2 3.2 0.00 0.00 0.00 92 1015.8
20260905080742 20 115 3.2 3.2 0.00 0.00 0.00 92 1015.8
20260905080242 20 74 6.4 8.0 0.00 0.00 0.00 92 1015.9
20260905075741 20 106 1.6 3.2 0.00 0.00 0.00 92 1015.9
20260905075240 20 107 4.8 4.8 0.00 0.00 0.00 92 1015.8
20260905074739 20 139 0.0 0.0 0.00 0.00 0.00 92 1015.9
20260905074236 20 135 0.0 0.0 0.00 0.00 0.00 93 1015.9
20260905073731 20 164 0.0 0.0 0.00 0.00 0.00 93 1015.8
20260905073226 20 163 0.0 0.0 0.00 0.00 0.00 92 1016.0
20260905072725 20 170 1.6 3.2 0.00 0.00 0.00 92 1015.9
20260905072221 20 124 3.2 4.8 0.00 0.00 0.00 92 1016.0
20260905071718 20 135 1.6 3.2 0.00 0.00 0.00 92 1015.9
20260905071214 20 158 3.2 4.8 0.00 0.00 0.00 92 1015.8
20260905070708 20 155 1.6 3.2 0.00 0.00 0.00 92 1016.2
20260905070204 20 146 0.0 0.0 0.00 0.00 0.00 91 1016.0
20260905065703 20 179 3.2 3.2 0.00 0.00 0.00 91 1015.8
20260905065157 20 5 0.0 3.2 0.00 0.00 0.00 91 1015.9
20260905064652 19 282 4.8 4.8 0.00 0.00 0.00 92 1015.9
20260905064148 19 159 0.0 3.2 0.00 0.00 0.00 91 1016.0
20260905063646 19 130 1.6 3.2 0.00 0.00 0.00 91 1016.0
20260905063143 20 164 1.6 3.2 0.00 0.00 0.00 91 1016.0
20260905062638 20 157 0.0 0.0 0.00 0.00 0.00 91 1015.9
20260905062137 20 147 0.0 0.0 0.00 0.00 0.00 91 1015.9
20260905061632 20 158 1.6 3.2 0.00 0.00 0.00 91 1016.0
20260905061132 20 73 1.6 3.2 0.00 0.00 0.00 91 1015.8
20260905060627 20 115 0.0 0.0 0.00 0.00 0.00 90 1015.7
20260905060124 20 168 0.0 0.0 0.00 0.00 0.00 90 1016.0
20260905055622 20 122 1.6 3.2 0.00 0.00 0.00 90 1015.9
20260905055117 20 167 3.2 4.8 0.00 0.00 0.00 89 1015.7
20260905054613 20 172 0.0 3.2 0.00 0.00 0.00 89 1015.5
20260905054108 20 72 1.6 3.2 0.00 0.00 0.00 88 1015.7
20260905053603 20 113 0.0 3.2 0.00 0.00 0.00 88 1015.7
20260905053058 20 121 0.0 0.0 0.00 0.00 0.00 88 1015.7
20260905052557 20 154 0.0 0.0 0.00 0.00 0.00 87 1015.6
20260905052052 20 112 1.6 4.8 0.00 0.00 0.00 87 1015.6
20260905051548 21 268 1.6 3.2 0.00 0.00 0.00 87 1015.5
20260905051044 21 216 1.6 3.2 0.00 0.00 0.00 86 1015.3
20260905050539 21 152 0.0 3.2 0.00 0.00 0.00 86 1015.2
20260905050037 21 130 1.6 3.2 0.00 0.00 0.00 86 1015.3
20260905045531 21 161 0.0 3.2 0.00 0.00 0.00 86 1015.3
20260905045026 21 237 0.0 0.0 0.00 0.00 0.00 85 1015.2
20260905044527 21 162 3.2 3.2 0.00 0.00 0.00 85 1015.5
20260905044026 21 166 0.0 3.2 0.00 0.00 0.00 85 1015.4
20260905043526 21 59 3.2 4.8 0.00 0.00 0.00 85 1015.2
20260905043021 21 169 3.2 3.2 0.00 0.00 0.00 84 1015.3
20260905042520 21 93 1.6 3.2 0.00 0.00 0.00 84 1015.6
20260905042015 21 156 0.0 3.2 0.00 0.00 0.00 84 1015.5
20260905041511 21 164 0.0 3.2 0.00 0.00 0.00 84 1015.6
20260905041006 22 63 1.6 3.2 0.00 0.00 0.00 83 1015.5
20260905040505 22 148 0.0 0.0 0.00 0.00 0.00 83 1015.3
20260905040004 22 144 0.0 0.0 0.00 0.00 0.00 82 1015.4
20260905035500 22 134 3.2 3.2 0.00 0.00 0.00 82 1015.6
20260905034957 22 75 3.2 4.8 0.00 0.00 0.00 82 1015.4
20260905034457 22 140 1.6 3.2 0.00 0.00 0.00 81 1015.4
20260905033956 22 143 1.6 3.2 0.00 0.00 0.00 81 1015.1
20260905033451 22 48 3.2 8.0 0.00 0.00 0.00 81 1015.4
20260905032946 22 130 3.2 3.2 0.00 0.00 0.00 80 1015.3
20260905032441 22 96 3.2 8.0 0.00 0.00 0.00 80 1015.3
20260905031936 23 98 3.2 3.2 0.00 0.00 0.00 80 1015.2
20260905031432 23 123 3.2 3.2 0.00 0.00 0.00 79 1015.2
20260905030927 23 155 3.2 3.2 0.00 0.00 0.00 79 1015.1
20260905030422 23 64 3.2 3.2 0.00 0.00 0.00 78 1015.1
20260905025921 23 209 3.2 3.2 0.00 0.00 0.00 78 1015.0
20260905025416 23 155 3.2 3.2 0.00 0.00 0.00 78 1015.1
20260905024913 23 323 8.0 14.5 0.00 0.00 0.00 77 1015.0
20260905024408 23 181 4.8 4.8 0.00 0.00 0.00 77 1014.8
20260905023904 23 301 4.8 8.0 0.00 0.00 0.00 76 1014.9
20260905023359 24 108 3.2 3.2 0.00 0.00 0.00 76 1014.8
20260905022857 24 153 1.6 3.2 0.00 0.00 0.00 75 1014.7
20260905022354 25 32 4.8 4.8 0.00 0.00 0.00 75 1014.7
20260905021853 25 102 3.2 3.2 0.00 0.00 0.00 74 1014.6
20260905021348 25 130 3.2 3.2 0.00 0.00 0.00 74 1014.4
20260905020843 25 357 9.7 14.5 0.00 0.00 0.00 74 1014.5
20260905020333 25 312 6.4 8.0 0.00 0.00 0.00 73 1014.5
20260905015832 25 97 3.2 4.8 0.00 0.00 0.00 73 1014.4
20260905015331 26 121 0.0 3.2 0.00 0.00 0.00 73 1014.7
20260905014830 26 107 1.6 3.2 0.00 0.00 0.00 73 1014.2
20260905014326 26 99 3.2 3.2 0.00 0.00 0.00 73 1014.1
20260905013821 26 166 0.0 0.0 0.00 0.00 0.00 74 1014.2
20260905013312 26 109 0.0 3.2 0.00 0.00 0.00 74 1014.1
20260905012807 26 159 0.0 0.0 0.00 0.00 0.00 73 1014.1
20260905012306 26 163 0.0 0.0 0.00 0.00 0.00 73 1014.0
20260905011759 26 158 0.0 0.0 0.00 0.00 0.00 72 1014.0
20260905011254 26 162 0.0 3.2 0.00 0.00 0.00 72 1014.0
20260905010749 26 119 0.0 3.2 0.00 0.00 0.00 71 1014.0
20260905010245 26 125 0.0 3.2 0.00 0.00 0.00 71 1013.9
20260905005741 26 145 0.0 3.2 0.00 0.00 0.00 71 1013.9
20260905005236 27 164 0.0 0.0 0.00 0.00 0.00 71 1013.6
20260905004736 27 158 0.0 3.2 0.00 0.00 0.00 70 1013.8
20260905004231 27 103 3.2 4.8 0.00 0.00 0.00 70 1013.6
20260905003731 27 133 1.6 3.2 0.00 0.00 0.00 70 1013.9
20260905003227 27 149 1.6 3.2 0.00 0.00 0.00 69 1013.7
20260905002722 27 169 1.6 3.2 0.00 0.00 0.00 69 1013.6
20260905002222 27 161 0.0 0.0 0.00 0.00 0.00 69 1013.6
20260905001717 27 106 3.2 3.2 0.00 0.00 0.00 68 1013.8
20260905001216 27 130 6.4 8.0 0.00 0.00 0.00 68 1013.7
20260905000712 28 149 0.0 3.2 0.00 0.00 0.00 67 1013.6
20260905000208 28 146 0.0 3.2 0.00 0.00 0.00 67 1013.6
20260904235707 28 136 1.6 3.2 0.00 0.00 0.00 67 1013.6
20260904235202 28 168 3.2 3.2 0.00 0.00 0.00 67 1013.6
20260904234657 28 173 3.2 3.2 0.00 0.00 0.00 66 1013.6
20260904234153 28 158 0.0 0.0 0.00 0.00 0.00 66 1013.4
20260904233648 28 133 3.2 3.2 0.00 0.00 0.00 65 1013.5
20260904233144 28 11 4.8 4.8 0.00 0.00 0.00 65 1013.4
20260904232640 28 138 3.2 4.8 0.00 0.00 0.00 65 1013.4
20260904232136 28 92 1.6 3.2 0.00 0.00 0.00 65 1013.6
20260904231632 28 155 0.0 0.0 0.00 0.00 0.00 65 1013.3
20260904231127 28 165 0.0 3.2 0.00 0.00 0.00 65 1013.3
20260904230626 28 77 1.6 4.8 0.00 0.00 0.00 65 1013.4
20260904230122 29 314 8.0 11.3 0.00 0.00 0.00 65 1013.3
20260904225619 29 148 6.4 8.0 0.00 0.00 0.00 65 1013.2
20260904225114 29 210 3.2 4.8 0.00 0.00 0.00 66 1013.2
20260904224609 29 170 1.6 3.2 0.00 0.00 0.00 65 1013.3
20260904224104 30 325 4.8 8.0 0.00 0.00 0.00 66 1013.3
20260904223603 30 172 0.0 3.2 0.00 0.00 0.00 66 1012.8
20260904223058 30 68 3.2 3.2 0.00 0.00 0.00 65 1013.1
20260904222554 30 283 0.0 0.0 0.00 0.00 0.00 64 1012.9
20260904222049 30 211 1.6 3.2 0.00 0.00 0.00 64 1012.8
20260904221544 30 342 6.4 8.0 0.00 0.00 0.00 63 1012.9
20260904221039 31 236 3.2 4.8 0.00 0.00 0.00 62 1013.1
20260904220538 30 149 0.0 0.0 0.00 0.00 0.00 63 1012.7
20260904220034 31 186 3.2 4.8 0.00 0.00 0.00 62 1012.6
20260904215533 31 252 6.4 8.0 0.00 0.00 0.00 63 1012.6
20260904215030 31 142 6.4 8.0 0.00 0.00 0.00 63 1012.7
20260904214525 31 343 3.2 4.8 0.00 0.00 0.00 63 1012.5
20260904214020 31 327 3.2 4.8 0.00 0.00 0.00 62 1012.5
20260904213518 31 351 4.8 8.0 0.00 0.00 0.00 63 1012.5
20260904213015 31 193 4.8 4.8 0.00 0.00 0.00 63 1012.7
20260904212514 30 80 4.8 4.8 0.00 0.00 0.00 64 1012.6
20260904212009 31 136 0.0 3.2 0.00 0.00 0.00 64 1012.7
20260904211503 31 281 3.2 4.8 0.00 0.00 0.00 64 1012.6
20260904210959 30 338 4.8 4.8 0.00 0.00 0.00 64 1012.8
20260904210458 30 299 4.8 8.0 0.00 0.00 0.00 65 1012.8
20260904205954 30 245 3.2 3.2 0.00 0.00 0.00 65 1012.6
20260904205449 30 19 3.2 4.8 0.00 0.00 0.00 66 1012.8
20260904204947 30 176 1.6 3.2 0.00 0.00 0.00 65 1012.7
20260904204442 31 111 4.8 4.8 0.00 0.00 0.00 64 1012.7
20260904203938 31 357 8.0 11.3 0.00 0.00 0.00 64 1012.6
20260904203434 31 120 3.2 4.8 0.00 0.00 0.00 63 1012.7
20260904202930 30 121 1.6 3.2 0.00 0.00 0.00 66 1012.6
20260904202426 30 319 9.7 11.3 0.00 0.00 0.00 64 1012.6
20260904201922 30 141 3.2 4.8 0.00 0.00 0.00 65 1012.7
20260904201416 30 21 3.2 4.8 0.00 0.00 0.00 65 1012.7
20260904200912 30 85 3.2 4.8 0.00 0.00 0.00 66 1012.6
20260904200410 30 24 6.4 11.3 0.00 0.00 0.00 65 1012.9
20260904195906 30 148 3.2 3.2 0.00 0.00 0.00 67 1012.8
20260904195403 30 2 3.2 4.8 0.00 0.00 0.00 67 1012.9
20260904194858 30 164 3.2 3.2 0.00 0.00 0.00 67 1012.9
20260904194358 30 18 6.4 11.3 0.00 0.00 0.00 67 1012.9
20260904193853 29 350 6.4 8.0 0.00 0.00 0.00 70 1012.7
20260904193348 29 354 3.2 8.0 0.00 0.00 0.00 69 1012.8
20260904192843 29 188 1.6 3.2 0.00 0.00 0.00 69 1012.8
20260904192339 28 176 3.2 4.8 0.00 0.00 0.00 72 1012.8
20260904191835 28 350 4.8 4.8 0.00 0.00 0.00 74 1012.9
20260904191332 28 344 4.8 8.0 0.00 0.00 0.00 72 1013.1
20260904190828 28 334 6.4 11.3 0.00 0.00 0.00 72 1013.1
20260904190324 29 184 6.4 8.0 0.00 0.00 0.00 71 1013.3
20260904185820 28 23 4.8 4.8 0.00 0.00 0.00 72 1013.2
20260904185315 28 263 8.0 11.3 0.00 0.00 0.00 72 1013.1
20260904184814 28 315 4.8 4.8 0.00 0.00 0.00 73 1013.1